Simultaneous Nadir Overpasses (SNOs) Predictions

Prediction of SNOs between AQUA and METOP-B Satellite Orbit:

Table of predicted SNOs for the next 14.0 days since TLE Epoch: 6/25/2022
Index Date (AQUA) Time (AQUA) Lat,Lon (AQUA) SZA (AQUA ) Date (METOP-B) Time (METOP-B) Lat,Lon (METOP-B) SZA (METOP-B ) Distance(km) Time Diff (sec)
1 06/25/2022 22:35:33 73.95,-164.26 50.60 06/25/2022 22:34:37 73.93,-164.26 50.59 2.78 56
2 06/25/2022 23:24:59 -74.00, 3.27 129.35 06/25/2022 23:25:17 -74.03, 3.31 129.32 3.31 18
3 06/26/2022 00:14:38 74.61, 169.47 51.31 06/26/2022 00:15:44 74.64, 172.22 51.25 81.35 66
4 06/28/2022 17:19:37 -73.46, 95.76 129.81 06/28/2022 17:18:29 -73.43, 93.65 129.74 66.97 68
5 06/28/2022 18:09:14 73.97, -97.71 50.74 06/28/2022 18:08:58 73.95, -97.80 50.73 3.45 16
6 06/28/2022 18:58:41 -74.07, 69.71 129.15 06/28/2022 18:59:38 -74.06, 69.78 129.18 2.79 57
7 07/01/2022 12:53:28 -73.96, 161.25 129.10 07/01/2022 12:52:41 -73.95, 161.27 129.10 1.48 47
8 07/01/2022 13:42:56 74.01, -31.21 50.96 07/01/2022 13:43:19 74.02, -31.23 50.97 1.13 23
9 07/04/2022 07:37:38 73.67, 60.86 50.81 07/04/2022 07:36:28 73.61, 59.54 50.82 41.94 70
10 07/04/2022 08:27:09 -73.97,-132.17 128.86 07/04/2022 08:27:03 -73.97,-132.28 128.86 3.42 6
11 07/04/2022 09:16:38 74.07, 35.24 51.25 07/04/2022 09:17:40 74.08, 35.34 51.25 3.19 62
12 07/07/2022 03:11:23 73.96, 126.81 51.40 07/07/2022 03:10:42 73.97, 126.80 51.42 0.70 41
13 07/07/2022 04:00:50 -74.05, -65.75 128.50 07/07/2022 04:01:23 -74.03, -65.72 128.52 2.39 33



Historial Predications of SNOs between AQUA and METOP-B
